Regional Weather Roundup
Issued by NWS

Home | Current Version | Previous Version | Graphics & Text | Print | Product List | Glossary On
Versions: 1 2 3 4 5 6 7 8 9 10 11 12 13 14 15 16 17 18 19 20 21 22 23 24 25 26 27 28 29 30 31 32 33 34 35 36 37 38 39 40 41 42 43 44 45 46 47 48 49 50
000
ASUS45 KCYS 250910
RWRWY

WYOMING REGIONAL WEATHER ROUNDUP
NATIONAL WEATHER SERVICE CHEYENNE WY
300 AM MDT MON MAY 25 2015

NOTE:  "FAIR" INDICATES FEW OR NO CLOUDS BELOW 12,000 FEET
WITH NO SIGNIFICANT WEATHER AND/OR OBSTRUCTIONS TO VISIBILITY.

WYZ001-251000-
YELLOWSTONE NATIONAL PARK

CITY           SKY/WX    TMP DP  RH WIND       PRES   REMARKS
LK YELLOWSTONE   N/A     30  28  92 NW3       30.04F
W YELLOWSTONE  NOT AVBL

$$
WYZ002>013-054>058-071-098>099-251000-
NORTHERN WYOMING

CITY           SKY/WX    TMP DP  RH WIND       PRES   REMARKS
JACKSON        CLOUDY    43  37  81 NW5       29.97R
CODY           MOCLDY    48  43  81 NW3       29.96R
GREYBULL       CLOUDY    50  47  89 SE3       29.89S
WORLAND        LGT RAIN  50  47  89 W3        29.90S
SHERIDAN       CLOUDY    49  47  93 W5        29.92S
BUFFALO        LGT RAIN  46  45  96 NW8       29.93S FOG
GILLETTE       CLOUDY    49  48  97 NW5       29.89S
HULETT         FOG       50  50 100 NE3       29.88S VSB<1/4
NEWCASTLE      CLOUDY    48  48 100 CALM      29.86S

$$
WYZ014>020-022>026-101>103-251000-
CENTRAL WYOMING

CITY           SKY/WX    TMP DP  RH WIND       PRES   REMARKS
BIG PINEY      CLOUDY    41  39  93 SW6       29.99F
PINEDALE       CLOUDY    41  41 100 CALM      30.01S
DUBOIS         CLOUDY    39  36  87 CALM      29.98S
LANDER         LGT RAIN  44  43  96 SE3       29.95R
RIVERTON       LGT RAIN  46  44  93 W9        29.95S
CASPER         CLOUDY    45  42  89 NW7       29.92R
DOUGLAS        CLOUDY    47  45  93 NW9       29.88S

$$
WYZ021-027>030-104>119-251000-
SOUTHERN WYOMING

CITY           SKY/WX    TMP DP  RH WIND       PRES   REMARKS
EVANSTON       CLOUDY    42  40  92 S6        29.98F
KEMMERER       CLOUDY    41  37  87 CALM      30.00S
FORT BRIDGER   CLOUDY    43  43 100 W3        30.02S
ROCK SPRINGS   CLOUDY    41  38  89 SE5       29.98F
DIXON          CLOUDY    42  39  89 CALM      29.99S
RAWLINS        CLOUDY    42  40  92 SW9       29.95S
SARATOGA       CLOUDY    37  36  93 SW5       29.96F WCI  34
LARAMIE        CLOUDY    40  36  86 CALM      29.92S
CHEYENNE       LGT RAIN  44  41  89 N8        29.88F
TORRINGTON     RAIN      50  49  96 NW7       29.83S FOG
PINE BLUFFS    DRIZZLE   46  45  93 NW8       29.86S

$$


USA.gov is the U.S. government's official web portal to all federal, state and local government web resources and services.